Weather History for San Angelo, TX

Change the Weather History Date:

Sunday, April 28, 2013

  Actual Average Record
Temperature  
Mean Temperature 71 °F 70 °F  
Max Temperature 90 °F 84 °F 96 °F (2002)
Min Temperature 52 °F 56 °F 37 °F (2008)
Degree Days  
Heating Degree Days 0 1  
Month to date heating degree days 98 86  
Since 1 July heating degree days 1887 2304  
Cooling Degree Days 6 6  
Month to date cooling degree days 152 105  
Year to date cooling degree days 227 143  
Growing Degree Days 21 (Base 50)    
Moisture  
Dew Point 47 °F    
Average Humidity 48    
Maximum Humidity 77    
Minimum Humidity 19    
Precipitation  
Precipitation 0.00 in 0.06 in 1.56 in (1932)
Month to date precipitation 0.98 1.30  
Year to date precipitation 2.81 5.08  
Snow  
Snow 0.00 in 0.00 in 0.00 in (2002)
Month to date snowfall T 0.0  
Since 1 July snowfall 2.8 2.2  
Snow Depth 0.00 in    
Sea Level Pressure  
Sea Level Pressure 29.90 in    
Wind  
Wind Speed 8 mph (SSE)    
Max Wind Speed 22 mph    
Max Gust Speed 28 mph    
Visibility 10 miles    
Events      
T = Trace of Precipitation, MM = Missing Value Source: NWS Daily Summary

Daily Weather History Graph

Daily Weather History Graph

Search for Another Location

Airport:

Trip Planner

Search our weather history database for the weather conditions in past years. The results will help you decide how hot, cold, wet, or windy it might be!

Date:

Astronomy

Apr. 28, 2013 Rise Set
Actual Time 6:59 AM CDT 8:19 PM CDT
Civil Twilight 6:34 AM CDT 8:45 PM CDT
Nautical Twilight 6:03 AM CDT 9:15 PM CDT
Astronomical Twilight 5:31 AM CDT 9:47 PM CDT
Moon 11:45 PM CDT (4/28) 9:25 AM CDT (4/28)
Length of Visible Light 14h 11m
Length of Day
13h 19m
Waning Gibbous, 88% of the Moon is Illuminated
Apr 28
Waning Gibbous
May 2
Last Quarter
May 9
New
May 17
First Quarter
May 24
Full

Hourly Weather History & Observations

Time (CDT) Temp. Heat Index Dew Point Humidity Pressure Visibility Wind Dir Wind Speed Gust Speed Precip Events Conditions
12:51 AM 61.0 °F - 42.1 °F 50% 30.00 in 10.0 mi East 6.9 mph - N/A   Clear
1:51 AM 57.9 °F - 42.1 °F 56% 29.99 in 10.0 mi Calm Calm - N/A   Clear
2:51 AM 57.9 °F - 44.1 °F 60% 29.99 in 10.0 mi ENE 3.5 mph - N/A   Clear
3:51 AM 55.0 °F - 43.0 °F 64% 29.99 in 10.0 mi North 4.6 mph - N/A   Clear
4:51 AM 53.1 °F - 42.1 °F 66% 29.97 in 10.0 mi Calm Calm - N/A   Clear
5:51 AM 54.0 °F - 43.0 °F 66% 29.96 in 10.0 mi Calm Calm - N/A   Clear
6:51 AM 55.0 °F - 48.0 °F 77% 29.96 in 10.0 mi Calm Calm - N/A   Clear
7:51 AM 60.1 °F - 52.0 °F 75% 29.96 in 10.0 mi Calm Calm - N/A   Clear
8:51 AM 66.0 °F - 57.0 °F 73% 29.97 in 10.0 mi Variable 3.5 mph - N/A   Clear
9:51 AM 72.0 °F - 60.1 °F 66% 29.96 in 10.0 mi South 9.2 mph - N/A   Clear
10:51 AM 75.9 °F - 61.0 °F 60% 29.95 in 10.0 mi SSW 5.8 mph - N/A   Clear
11:51 AM 80.1 °F 80.6 °F 57.9 °F 47% 29.94 in 10.0 mi SSW 8.1 mph - N/A   Clear
12:51 PM 84.0 °F - 52.0 °F 33% 29.91 in 10.0 mi WSW 11.5 mph - N/A   Clear
1:51 PM 88.0 °F - 46.9 °F 24% 29.89 in 10.0 mi SSE 11.5 mph 18.4 mph N/A   Clear
2:51 PM 89.1 °F - 44.1 °F 21% 29.86 in 10.0 mi SE 12.7 mph - N/A   Partly Cloudy
3:51 PM 89.1 °F - 43.0 °F 20% 29.82 in 10.0 mi Variable 4.6 mph - N/A   Partly Cloudy
4:51 PM 88.0 °F - 42.1 °F 20% 29.79 in 10.0 mi SSE 13.8 mph 21.9 mph N/A   Partly Cloudy
5:51 PM 86.0 °F - 39.0 °F 19% 29.79 in 10.0 mi ESE 6.9 mph - N/A   Clear
6:51 PM 84.0 °F - 39.0 °F 20% 29.79 in 10.0 mi ESE 15.0 mph 19.6 mph N/A   Clear
7:51 PM 81.0 °F - 39.0 °F 22% 29.80 in 10.0 mi SSE 6.9 mph - N/A   Clear
8:51 PM 77.0 °F - 42.1 °F 29% 29.79 in 10.0 mi South 5.8 mph - N/A   Clear
9:51 PM 75.0 °F - 45.0 °F 34% 29.84 in 10.0 mi South 17.3 mph 27.6 mph N/A   Scattered Clouds
10:51 PM 70.0 °F - 51.1 °F 51% 29.87 in 10.0 mi South 17.3 mph 23.0 mph N/A   Partly Cloudy
11:51 PM 69.1 °F - 48.0 °F 47% 29.86 in 10.0 mi South 17.3 mph 26.5 mph N/A   Clear